Flag for France Weather past 2 weeks in Marseille, France

Now
48 °F

Passing clouds.


Feels Like: 46 °F
Forecast: 46 / 54 °F
Wind: 6 mph from Northwest

Location: Marseille / Marignane

Current Time: Jan 29, 2015 at 11:45:15 AM

Latest Report: Jan 29, 2015 at 11:00 AM


Visibility: N/A

Pressure: 29.71 "Hg

Humidity: 76%

Dew point: 41 °F

Location of MarseilleLocation

Historic Weather in Marseille — Graph

°F

Marseille temperature yesterday

Maximum temperature yesterday: 50 °F (at 1:00 PM)
Minimum temperature yesterday: 39 °F (at 7:00 AM)
Average temperature yesterday: 44 °F

Past Weeks' High & Low Weather Summary

 TemperatureHumidityPressure
High61 °F (Jan 15, 12:30 PM)100% (Jan 21, 4:00 AM)30.27 "Hg (Jan 21, 4:00 AM)
Low30 °F (Jan 18, 6:00 AM)43% (Jan 24, 3:30 PM)29.62 "Hg (Jan 21, 2:30 PM)
Average45 °F73%29.95 "Hg
* Reported Jan 14 11:00 AM — Jan 29 11:00 AM, Marseille, Weather by CustomWeather, © 2014

Note: Actual official high and low records may vary slightly from our data, if they occured in-between our weather recording intervals... More about our weather records

Advertising

Marseille weather history for previous 24 hours

 ConditionsComfort  
Time TempWeatherWind HumidityBarometerVisibility
11:00 AM
Jan 29
48 °FPassing clouds.6 mph76%29.71 "HgN/A
10:30 AM48 °FPassing clouds.7 mph76%29.71 "HgN/A
10:00 AM46 °FSunny.2 mph76%29.71 "Hg10 mi
9:30 AM45 °FSunny.5 mph87%29.71 "Hg10 mi
9:00 AM43 °FPassing clouds.6 mph87%29.74 "HgN/A
8:30 AM39 °FSunny.6 mph87%29.74 "Hg10 mi
8:00 AM39 °FBroken clouds.6 mph87%29.74 "HgN/A
7:30 AM39 °FPartly cloudy.3 mph87%29.74 "HgN/A
7:00 AM39 °FPartly cloudy.No wind87%29.74 "HgN/A
6:30 AM39 °FPartly cloudy.No wind81%29.77 "HgN/A
6:00 AM39 °FPartly cloudy.No wind87%29.77 "HgN/A
5:30 AM39 °FPassing clouds.No wind87%29.80 "HgN/A
5:00 AM39 °FPassing clouds.3 mph87%29.80 "HgN/A
4:30 AM39 °FPassing clouds.5 mph87%29.80 "HgN/A
4:00 AM39 °FPassing clouds.3 mph81%29.83 "HgN/A
3:30 AM41 °FMostly cloudy.2 mph81%29.83 "HgN/A
3:00 AM41 °FClear.5 mph81%29.86 "HgN/A
2:30 AM39 °FClear.7 mph75%29.86 "HgN/A
2:00 AM41 °FClear.6 mph76%29.86 "HgN/A
1:30 AM39 °FClear.8 mph81%29.89 "HgN/A
1:00 AM37 °FClear.7 mph87%29.92 "HgN/A
12:30 AM37 °FClear.2 mph75%29.92 "HgN/A
12:00 AM39 °FClear.2 mph75%29.95 "Hg10 mi
11:30 PM
Jan 28
41 °FClear.No wind76%29.95 "Hg10 mi
11:00 PM43 °FClear.No wind71%29.95 "Hg10 mi
10:30 PM41 °FClear.2 mph76%29.98 "Hg10 mi
10:00 PM43 °FPassing clouds.3 mph71%29.98 "HgN/A
9:30 PM43 °FClear.5 mph71%30.01 "Hg10 mi
9:00 PM43 °FClear.9 mph76%30.01 "Hg10 mi
8:30 PM43 °FClear.10 mph71%30.01 "Hg10 mi
8:00 PM43 °FClear.9 mph66%30.01 "Hg10 mi
7:30 PM45 °FClear.3 mph57%30.01 "Hg10 mi
7:00 PM45 °FClear.9 mph61%30.04 "Hg10 mi
6:30 PM46 °FClear.9 mph57%30.04 "Hg10 mi
6:00 PM48 °FPassing clouds.16 mph50%30.04 "HgN/A
5:30 PM48 °FPassing clouds.20 mph54%30.04 "HgN/A
5:00 PM50 °FPassing clouds.16 mph50%30.04 "HgN/A
4:30 PM50 °FSunny.13 mph50%30.01 "Hg10 mi
4:00 PM50 °FSunny.12 mph47%30.01 "Hg10 mi
3:00 PM50 °FPassing clouds.22 mph47%30.07 "HgN/A
2:30 PM50 °FPassing clouds.21 mph47%30.07 "HgN/A
2:00 PM50 °FPartly sunny.17 mph47%30.09 "HgN/A
1:30 PM50 °FSunny.15 mph47%30.09 "Hg10 mi
1:00 PM50 °FSunny.16 mph47%30.09 "Hg10 mi
12:30 PM48 °FSunny.17 mph50%30.09 "Hg10 mi
12:00 PM48 °FScattered clouds.18 mph50%30.12 "HgN/A
11:30 AM46 °FScattered clouds.20 mph53%30.12 "HgN/A
11:00 AM46 °FScattered clouds.17 mph53%30.12 "HgN/A
Weather by CustomWeather, © 2014

See weather overviewHow to use our weather pages